Weather in Geneva

Switzerland     46˚12′12″N   6˚08′24″E
temp.,
°C
wind,
m/s
gust,
m/s
humid.,
%
clouds,
%
prec.,
mm/h
press.,
hPa
HPBL,
m
2 december, wed
wed201:00+2˚nne369063 0.3 1017354
04:00+2˚nne699085 0.1 1015640
07:00+1˚nne699192 0.1 1015557
10:00+2˚nne71086100 0.1 1015693
13:00+3˚nne687999 0.1 1013850
16:00+3˚nne4779100 0.1 1013597
19:00+2˚ne3582100 0.2 1014353
22:00ene018783 0.1 1015112
3 december, thu
thu301:00s229088 0.1 1014102
04:00−1˚s239141 0.0 1013116
07:00−2˚ssw238961 0.0 101294
10:00+1˚ssw237742 0.0 1010231
13:00+4˚ssw356426 0.0 1006554
16:00+3˚sw3575100 0.0 1003213
19:00+2˚ssw3574100 0.0 1002159
22:00+2˚ssw1266100 0.0 99983
4 december, fri
fri401:00+2˚ssw4686100 0.3 996253
04:00+1˚sse2279100 0.0 99384
07:00+1˚wsw2484100 0.3 991147
10:00+1˚s2392100 1.6 991196
13:00+1˚wnw1298100 4.6 990133
16:00+1˚ssw12100100 5.7 990102
19:00+1˚ssw3499100 10.9 992200
22:00+1˚s2399100 1.9 993193
5 december, sat
sat501:00+1˚ssw1298100 3.1 994104
04:00−1˚ssw1195100 0.1 99492
07:00−1˚nnw0194100 0.3 99378
10:00+1˚wsw0299100 1.1 994130
13:00+1˚ssw1298100 2.6 994141
16:00+1˚wsw2298100 0.1 995150
19:00−1˚ssw2394100 0.1 99788
22:00−3˚sse129055 0.0 99878
6 december, sun
sun601:00−4˚ssw128739 0.0 99766
04:00−4˚ssw128571 0.0 99775
07:00−2˚ssw238885 0.1 997102
10:00−1˚sse1181100 0.0 99789
13:00+1˚sw3495100 0.2 997305
16:00+1˚sw2294100 0.3 998117
19:00+1˚sse1299100 1.4 1000104
22:00sse2399100 2.9 1003168